GW4277 Weather Reports


time (UTC)temp
C
wind
direction
speed
KPH
gust
KPH
rain 1hr
cm
rain 24hr
cm
rain mn
cm
humidity
%
barometer
mb
20260507001727 12 346 9.7 14.5 0.00 0.00 0.00 33 1015.4
20260507001225 12 312 9.7 11.3 0.00 0.00 0.00 33 1015.5
20260507000721 12 17 12.9 16.1 0.00 0.00 0.00 32 1015.5
20260507000216 12 298 17.7 22.5 0.00 0.00 0.00 32 1015.5
20260506235714 12 312 24.1 27.4 0.00 0.00 0.00 32 1015.6
20260506235209 12 302 14.5 22.5 0.00 0.00 0.00 32 1015.6
20260506234706 12 325 11.3 11.3 0.00 0.00 0.00 32 1015.7
20260506234204 12 308 19.3 24.1 0.00 0.00 0.00 32 1015.6
20260506233701 12 350 20.9 22.5 0.00 0.00 0.00 32 1015.6
20260506233157 12 324 11.3 14.5 0.00 0.00 0.00 32 1015.7
20260506232653 12 347 14.5 16.1 0.00 0.00 0.00 32 1015.6
20260506232148 13 336 12.9 16.1 0.00 0.00 0.00 31 1015.7
20260506231645 13 302 9.7 11.3 0.00 0.00 0.00 31 1015.7
20260506231144 12 335 11.3 14.5 0.00 0.00 0.00 31 1015.9
20260506230641 12 329 20.9 24.1 0.00 0.00 0.00 31 1016.0
20260506230137 13 327 25.7 30.6 0.00 0.00 0.00 31 1015.9
20260506225634 13 315 9.7 16.1 0.00 0.00 0.00 31 1015.8
20260506225131 13 322 29.0 35.4 0.00 0.00 0.00 30 1015.8
20260506224628 12 330 19.3 24.1 0.00 0.00 0.00 32 1015.9
20260506224124 12 335 6.4 8.0 0.00 0.00 0.00 32 1015.9
20260506223620 12 327 16.1 19.3 0.00 0.00 0.00 32 1015.9
20260506223116 12 134 8.0 11.3 0.00 0.00 0.00 32 1016.1
20260506222613 12 2 19.3 24.1 0.00 0.00 0.00 32 1016.1
20260506222109 13 303 19.3 27.4 0.00 0.00 0.00 31 1016.1
20260506221607 12 351 11.3 14.5 0.00 0.00 0.00 33 1016.2
20260506221105 12 89 8.0 11.3 0.00 0.00 0.00 32 1016.0
20260506220601 12 328 17.7 22.5 0.00 0.00 0.00 32 1016.2
20260506220057 12 343 9.7 14.5 0.00 0.00 0.00 33 1016.1
20260506215553 12 319 20.9 27.4 0.00 0.00 0.00 32 1016.4
20260506215049 12 15 9.7 14.5 0.00 0.00 0.00 33 1016.2
20260506214546 13 354 25.7 30.6 0.00 0.00 0.00 32 1016.4
20260506214043 12 331 11.3 16.1 0.00 0.00 0.00 33 1016.4
20260506213541 12 302 20.9 27.4 0.00 0.00 0.00 33 1016.4
20260506213039 12 340 27.4 33.8 0.00 0.00 0.00 34 1016.6
20260506212535 12 306 9.7 11.3 0.00 0.00 0.00 34 1016.6
20260506212030 12 322 14.5 16.1 0.00 0.00 0.00 34 1016.6
20260506211526 12 310 14.5 19.3 0.00 0.00 0.00 34 1016.7
20260506211024 13 18 19.3 22.5 0.00 0.00 0.00 33 1016.6
20260506210520 12 354 20.9 24.1 0.00 0.00 0.00 34 1016.6
20260506210017 12 314 12.9 19.3 0.00 0.00 0.00 35 1016.8
20260506205514 12 324 9.7 14.5 0.00 0.00 0.00 36 1016.8
20260506205009 12 319 14.5 19.3 0.00 0.00 0.00 35 1017.0
20260506204507 12 296 11.3 14.5 0.00 0.00 0.00 35 1017.0
20260506204004 12 314 11.3 14.5 0.00 0.00 0.00 36 1017.2
20260506203502 12 315 17.7 22.5 0.00 0.00 0.00 35 1017.2
20260506202959 12 359 16.1 22.5 0.00 0.00 0.00 35 1017.0
20260506202456 12 307 14.5 16.1 0.00 0.00 0.00 35 1017.2
20260506201952 12 353 25.7 30.6 0.00 0.00 0.00 34 1017.3
20260506201450 12 305 16.1 22.5 0.00 0.00 0.00 35 1017.2
20260506200946 11 314 9.7 11.3 0.00 0.00 0.00 36 1017.5
20260506200442 12 330 19.3 22.5 0.00 0.00 0.00 35 1017.3
20260506195939 12 305 11.3 14.5 0.00 0.00 0.00 36 1017.2
20260506195436 12 325 14.5 27.4 0.00 0.00 0.00 36 1017.5
20260506194932 12 327 12.9 16.1 0.00 0.00 0.00 36 1017.6
20260506194430 12 292 19.3 24.1 0.00 0.00 0.00 35 1017.7
20260506193926 11 323 16.1 19.3 0.00 0.00 0.00 35 1017.6
20260506193424 11 355 22.5 30.6 0.00 0.00 0.00 35 1017.6
20260506192920 12 319 20.9 27.4 0.00 0.00 0.00 34 1017.7
20260506192417 12 310 24.1 30.6 0.00 0.00 0.00 35 1017.7
20260506191914 12 300 22.5 27.4 0.00 0.00 0.00 34 1017.8
20260506191410 11 337 14.5 19.3 0.00 0.00 0.00 36 1017.9
20260506190908 11 312 22.5 30.6 0.00 0.00 0.00 37 1017.9
20260506190404 11 330 19.3 33.8 0.00 0.00 0.00 36 1018.0
20260506185900 11 318 9.7 16.1 0.00 0.00 0.00 37 1017.9
20260506185358 11 333 27.4 35.4 0.00 0.00 0.00 37 1018.0
20260506184855 12 337 14.5 16.1 0.00 0.00 0.00 36 1018.1
20260506184352 11 17 27.4 33.8 0.00 0.00 0.00 37 1018.1
20260506183849 11 316 11.3 16.1 0.00 0.00 0.00 38 1018.3
20260506183344 10 328 9.7 16.1 0.00 0.00 0.00 39 1018.3
20260506182842 11 352 19.3 30.6 0.00 0.00 0.00 37 1018.4
20260506182339 10 39 8.0 11.3 0.00 0.00 0.00 39 1018.3
20260506181836 10 358 16.1 19.3 0.00 0.00 0.00 39 1018.3
20260506181334 11 25 22.5 27.4 0.00 0.00 0.00 36 1018.6
20260506180831 10 337 11.3 14.5 0.00 0.00 0.00 38 1018.4
20260506180327 10 325 19.3 24.1 0.00 0.00 0.00 39 1018.3
20260506175823 10 344 14.5 22.5 0.00 0.00 0.00 39 1018.6
20260506175320 11 337 27.4 38.6 0.00 0.00 0.00 38 1018.5
20260506174818 10 327 11.3 14.5 0.00 0.00 0.00 39 1018.8
20260506174315 10 333 20.9 24.1 0.00 0.00 0.00 37 1018.8
20260506173812 10 310 17.7 24.1 0.00 0.00 0.00 39 1018.8
20260506173309 10 320 17.7 33.8 0.00 0.00 0.00 40 1018.6
20260506172806 10 298 19.3 24.1 0.00 0.00 0.00 39 1019.0
20260506172306 10 291 29.0 38.6 0.00 0.00 0.00 38 1019.0
20260506171800 10 323 22.5 30.6 0.00 0.00 0.00 40 1019.0
20260506171257 9 342 9.7 14.5 0.00 0.00 0.00 39 1019.2
20260506170755 9 297 25.7 33.8 0.00 0.00 0.00 39 1019.1
20260506170251 10 62 14.5 19.3 0.00 0.00 0.00 40 1019.1
20260506165749 10 15 19.3 24.1 0.00 0.00 0.00 40 1019.0
20260506165246 9 319 22.5 27.4 0.00 0.00 0.00 40 1019.0
20260506164743 10 357 12.9 14.5 0.00 0.00 0.00 41 1019.0
20260506164240 9 286 12.9 16.1 0.00 0.00 0.00 42 1019.3
20260506163737 8 348 20.9 24.1 0.00 0.00 0.00 43 1019.2
20260506163231 8 89 19.3 24.1 0.00 0.00 0.00 42 1019.2
20260506162728 8 306 12.9 19.3 0.00 0.00 0.00 45 1019.1
20260506162226 8 92 12.9 16.1 0.00 0.00 0.00 43 1019.2
20260506161723 8 327 11.3 14.5 0.00 0.00 0.00 45 1019.2
20260506161220 9 14 14.5 19.3 0.00 0.00 0.00 43 1019.4
20260506160718 8 301 19.3 24.1 0.00 0.00 0.00 43 1019.3
20260506160214 9 65 17.7 22.5 0.00 0.00 0.00 43 1019.3
20260506155713 8 327 12.9 16.1 0.00 0.00 0.00 45 1019.1
20260506155209 8 327 16.1 22.5 0.00 0.00 0.00 45 1019.2
20260506153311 8 6 12.9 16.1 0.00 0.00 0.00 45 1019.4
20260506152808 8 314 20.9 27.4 0.00 0.00 0.00 46 1019.4
20260506152306 8 350 12.9 16.1 0.00 0.00 0.00 45 1019.4
20260506151804 8 301 19.3 27.4 0.00 0.00 0.00 46 1019.4
20260506151300 8 321 11.3 19.3 0.00 0.00 0.00 45 1019.4
20260506150757 8 65 9.7 11.3 0.00 0.00 0.00 46 1019.5
20260506150303 8 343 20.9 27.4 0.00 0.00 0.00 46 1019.6
20260506145751 7 324 17.7 19.3 0.00 0.00 0.00 47 1019.3
20260506145247 7 301 12.9 19.3 0.00 0.00 0.00 47 1019.4
20260506144745 7 326 12.9 16.1 0.00 0.00 0.00 47 1019.4
20260506144242 8 44 19.3 24.1 0.00 0.00 0.00 46 1019.4
20260506143739 7 333 8.0 11.3 0.00 0.00 0.00 47 1019.6
20260506143237 7 66 6.4 8.0 0.00 0.00 0.00 49 1019.5
20260506142735 7 305 14.5 22.5 0.00 0.00 0.00 47 1019.6
20260506142233 7 99 6.4 8.0 0.00 0.00 0.00 48 1019.4
20260506141731 7 337 6.4 11.3 0.00 0.00 0.00 48 1019.5
20260506141229 6 329 6.4 8.0 0.00 0.00 0.00 49 1019.4
20260506140726 7 6 8.0 14.5 0.00 0.00 0.00 49 1019.5
20260506140223 7 60 9.7 11.3 0.00 0.00 0.00 50 1019.5
20260506135719 6 357 8.0 11.3 0.00 0.00 0.00 50 1019.5
20260506135216 6 101 9.7 14.5 0.00 0.00 0.00 50 1019.5
20260506134713 6 347 9.7 14.5 0.00 0.00 0.00 51 1019.6
20260506134209 6 342 6.4 11.3 0.00 0.00 0.00 52 1019.6
20260506133706 6 58 8.0 11.3 0.00 0.00 0.00 53 1019.5
20260506133203 6 91 3.2 4.8 0.00 0.00 0.00 54 1019.5
20260506132700 5 65 3.2 3.2 0.00 0.00 0.00 57 1019.3
20260506132157 5 340 6.4 8.0 0.00 0.00 0.00 58 1019.3
20260506131655 5 40 4.8 8.0 0.00 0.00 0.00 60 1019.3
20260506131150 5 12 3.2 4.8 0.00 0.00 0.00 61 1019.3
20260506130647 4 336 6.4 8.0 0.00 0.00 0.00 63 1019.2
20260506130145 4 67 3.2 4.8 0.00 0.00 0.00 65 1019.3
20260506125643 3 65 3.2 3.2 0.00 0.00 0.00 67 1019.2
20260506125140 3 331 4.8 4.8 0.00 0.00 0.00 68 1019.1
20260506124638 2 18 3.2 4.8 0.00 0.00 0.00 69 1019.2
20260506124136 2 82 4.8 4.8 0.00 0.00 0.00 70 1019.2
20260506123633 2 337 3.2 4.8 0.00 0.00 0.00 72 1019.1
20260506123132 1 44 3.2 4.8 0.00 0.00 0.00 74 1019.0
20260506122628 1 72 1.6 3.2 0.00 0.00 0.00 74 1019.0
20260506122126 1 103 1.6 3.2 0.00 0.00 0.00 74 1019.0
20260506121623 0 55 1.6 3.2 0.00 0.00 0.00 75 1018.8
20260506121120 0 74 3.2 3.2 0.00 0.00 0.00 75 1018.8
20260506120618 0 56 3.2 4.8 0.00 0.00 0.00 76 1018.8
20260506120115 0 62 3.2 4.8 0.00 0.00 0.00 76 1018.8
20260506115613 0 90 3.2 3.2 0.00 0.00 0.00 76 1018.7
20260506115111 0 90 0.0 0.0 0.00 0.00 0.00 77 1018.6
20260506114608 0 99 1.6 3.2 0.00 0.00 0.00 77 1018.4
20260506114106 0 67 1.6 3.2 0.00 0.00 0.00 77 1018.3
20260506113604 0 95 1.6 3.2 0.00 0.00 0.00 77 1018.0
20260506113101 0 13 3.2 4.8 0.00 0.00 0.00 77 1018.3
20260506112557 -1 23 3.2 4.8 0.00 0.00 0.00 78 1018.2
20260506112055 -1 25 4.8 4.8 0.00 0.00 0.00 78 1018.2
20260506111553 0 85 3.2 4.8 0.00 0.00 0.00 77 1017.9
20260506111049 0 101 1.6 3.2 0.00 0.00 0.00 77 1018.1
20260506110547 0 97 3.2 3.2 0.00 0.00 0.00 76 1017.8
20260506110044 0 88 4.8 4.8 0.00 0.00 0.00 77 1017.8
20260506105540 -1 21 4.8 4.8 0.00 0.00 0.00 77 1017.8
20260506105038 -1 87 3.2 3.2 0.00 0.00 0.00 76 1017.8
20260506104536 0 345 4.8 4.8 0.00 0.00 0.00 75 1017.7
20260506104033 0 52 4.8 4.8 0.00 0.00 0.00 76 1017.7
20260506103530 0 340 3.2 4.8 0.00 0.00 0.00 74 1017.7
20260506103027 0 74 1.6 3.2 0.00 0.00 0.00 75 1017.6
20260506102526 0 76 3.2 4.8 0.00 0.00 0.00 74 1017.8
20260506102022 0 106 0.0 3.2 0.00 0.00 0.00 73 1017.7
20260506101519 0 72 3.2 4.8 0.00 0.00 0.00 75 1017.8
20260506101016 0 106 0.0 0.0 0.00 0.00 0.00 75 1017.7
20260506100514 0 108 0.0 0.0 0.00 0.00 0.00 73 1017.6
20260506100012 0 76 0.0 0.0 0.00 0.00 0.00 73 1017.5
20260506095511 0 94 1.6 3.2 0.00 0.00 0.00 73 1017.8
20260506095006 0 101 0.0 0.0 0.00 0.00 0.00 73 1017.7
20260506094505 0 80 1.6 3.2 0.00 0.00 0.00 74 1017.6
20260506094002 0 110 0.0 0.0 0.00 0.00 0.00 74 1017.6
20260506093500 0 74 1.6 3.2 0.00 0.00 0.00 72 1017.7
20260506092957 0 101 3.2 3.2 0.00 0.00 0.00 71 1017.5
20260506092455 0 313 6.4 8.0 0.00 0.00 0.00 71 1017.5
20260506091951 0 318 6.4 8.0 0.00 0.00 0.00 71 1017.3
20260506091450 0 9 4.8 8.0 0.00 0.00 0.00 72 1017.3
20260506090947 0 76 3.2 3.2 0.00 0.00 0.00 72 1017.5
20260506090445 0 104 1.6 3.2 0.00 0.00 0.00 71 1017.2
20260506085941 0 345 6.4 8.0 0.00 0.00 0.00 71 1017.2
20260506085438 0 85 4.8 4.8 0.00 0.00 0.00 70 1017.1
20260506084934 0 63 4.8 4.8 0.00 0.00 0.00 69 1017.5
20260506084431 0 44 4.8 4.8 0.00 0.00 0.00 70 1017.3
20260506083927 0 96 1.6 3.2 0.00 0.00 0.00 70 1017.1
20260506083424 0 89 4.8 4.8 0.00 0.00 0.00 70 1016.9
20260506082922 0 81 3.2 4.8 0.00 0.00 0.00 69 1017.1
20260506082419 1 38 3.2 4.8 0.00 0.00 0.00 68 1017.0
20260506081914 1 64 4.8 4.8 0.00 0.00 0.00 68 1017.0
20260506081413 1 63 3.2 4.8 0.00 0.00 0.00 67 1017.0
20260506080910 1 67 3.2 3.2 0.00 0.00 0.00 68 1016.9
20260506080406 1 62 3.2 3.2 0.00 0.00 0.00 67 1016.7
20260506073350 0 105 0.0 0.0 0.00 0.00 0.00 67 1016.6
20260506072847 1 109 0.0 0.0 0.00 0.00 0.00 66 1016.5
20260506072345 1 96 1.6 3.2 0.00 0.00 0.00 66 1016.4
20260506071842 0 108 0.0 0.0 0.00 0.00 0.00 68 1016.5
20260506071341 1 105 0.0 0.0 0.00 0.00 0.00 67 1016.5
20260506070837 2 97 1.6 3.2 0.00 0.00 0.00 64 1017.0
20260506070334 2 97 0.0 3.2 0.00 0.00 0.00 65 1017.0
20260506062311 2 344 4.8 4.8 0.00 0.00 0.00 64 1016.8
20260506061807 2 343 3.2 4.8 0.00 0.00 0.00 63 1016.8
20260506061304 2 336 4.8 4.8 0.00 0.00 0.00 62 1016.9
20260506060802 1 34 3.2 4.8 0.00 0.00 0.00 63 1016.8
20260506060300 1 84 3.2 4.8 0.00 0.00 0.00 64 1016.7
20260506051231 1 109 1.6 3.2 0.00 0.00 0.00 61 1016.2
20260506050730 2 29 3.2 4.8 0.00 0.00 0.00 60 1016.2
20260506050227 2 68 3.2 4.8 0.00 0.00 0.00 59 1016.3
20260506044717 2 64 4.8 4.8 0.00 0.00 0.00 59 1016.4
20260506044215 2 99 3.2 3.2 0.00 0.00 0.00 59 1016.4
20260506043712 2 307 4.8 4.8 0.00 0.00 0.00 59 1016.5
20260506043210 2 15 3.2 3.2 0.00 0.00 0.00 58 1016.5
20260506042708 2 349 6.4 8.0 0.00 0.00 0.00 58 1016.4
20260506042206 3 331 6.4 8.0 0.00 0.00 0.00 57 1016.5
20260506041704 3 48 4.8 4.8 0.00 0.00 0.00 56 1016.4
20260506041201 3 343 4.8 8.0 0.00 0.00 0.00 56 1016.4
20260506040658 3 321 3.2 4.8 0.00 0.00 0.00 56 1016.6
20260506040155 3 339 3.2 4.8 0.00 0.00 0.00 56 1016.6
20260506035652 3 67 4.8 4.8 0.00 0.00 0.00 55 1016.6
20260506035149 3 317 4.8 8.0 0.00 0.00 0.00 55 1016.6
20260506034645 3 47 3.2 4.8 0.00 0.00 0.00 55 1016.7
20260506034143 3 20 3.2 4.8 0.00 0.00 0.00 55 1016.5
20260506033640 3 324 4.8 4.8 0.00 0.00 0.00 54 1016.5
20260506033137 3 57 3.2 4.8 0.00 0.00 0.00 54 1016.4
20260506032634 3 86 4.8 4.8 0.00 0.00 0.00 54 1016.3
20260506032131 3 109 1.6 3.2 0.00 0.00 0.00 54 1016.3
20260506031628 3 112 0.0 3.2 0.00 0.00 0.00 54 1016.4
20260506031125 4 17 4.8 4.8 0.00 0.00 0.00 52 1016.2
20260506030623 5 69 3.2 4.8 0.00 0.00 0.00 52 1016.3
20260506030120 5 87 0.0 0.0 0.00 0.00 0.00 51 1016.4
20260506025617 5 52 3.2 3.2 0.00 0.00 0.00 50 1016.3
20260506025113 5 290 3.2 4.8 0.00 0.00 0.00 50 1016.2
20260506024611 5 90 3.2 4.8 0.00 0.00 0.00 50 1016.1
20260506024106 5 343 3.2 4.8 0.00 0.00 0.00 50 1016.1
20260506023602 5 46 6.4 8.0 0.00 0.00 0.00 48 1015.9
20260506023100 6 95 3.2 3.2 0.00 0.00 0.00 48 1015.8
20260506022558 6 80 3.2 4.8 0.00 0.00 0.00 48 1015.8
20260506022055 6 57 6.4 8.0 0.00 0.00 0.00 47 1015.7
20260506021553 6 14 3.2 4.8 0.00 0.00 0.00 47 1015.7
20260506021050 6 44 4.8 4.8 0.00 0.00 0.00 46 1015.5
20260506020547 6 1 8.0 11.3 0.00 0.00 0.00 46 1015.5
20260506020044 6 50 6.4 8.0 0.00 0.00 0.00 45 1015.2
20260506015542 7 296 3.2 4.8 0.00 0.00 0.00 45 1015.2
20260506015039 7 78 14.5 19.3 0.00 0.00 0.00 44 1015.2
20260506014536 7 52 6.4 8.0 0.00 0.00 0.00 44 1015.0
20260506014032 7 73 6.4 8.0 0.00 0.00 0.00 43 1015.1
20260506013531 7 75 9.7 14.5 0.00 0.00 0.00 43 1015.1
20260506013026 7 26 6.4 8.0 0.00 0.00 0.00 43 1015.1
20260506012522 7 10 3.2 4.8 0.00 0.00 0.00 43 1014.8
20260506012019 7 34 8.0 8.0 0.00 0.00 0.00 42 1014.8
20260506011517 8 54 9.7 14.5 0.00 0.00 0.00 41 1014.8
20260506011013 8 264 16.1 24.1 0.00 0.00 0.00 40 1015.0
20260506010513 8 99 11.3 16.1 0.00 0.00 0.00 41 1014.7
20260506010009 8 99 4.8 4.8 0.00 0.00 0.00 41 1014.8
20260506005506 8 319 14.5 19.3 0.00 0.00 0.00 40 1014.5
20260506005002 8 314 14.5 24.1 0.00 0.00 0.00 40 1014.6
20260506004459 8 14 8.0 11.3 0.00 0.00 0.00 40 1014.4
20260506003955 8 317 14.5 19.3 0.00 0.00 0.00 38 1014.4
20260506003452 8 320 24.1 30.6 0.00 0.00 0.00 38 1014.2
20260506002948 10 341 22.5 24.1 0.00 0.00 0.00 38 1014.3
20260506002444 8 331 8.0 11.3 0.00 0.00 0.00 40 1014.2